Home   Weather   Virginia Beach   Past weeks

Flag for USA Past Weather in Virginia Beach, Virginia, USA — Yesterday and Last 2 Weeks

Now
84 °F

Scattered clouds.


Feels Like: 90 °F
Forecast: 75 / 87 °F
Wind: 9 mph from Southwest

Location: Virginia Beach - Oceana

Current Time: Jul 24, 2017 at 9:06:00 pm

Latest Report: Jul 24, 2017 at 7:56 pm


Visibility: 10 mi

Pressure: 29.86 "Hg

Humidity: 67%

Dew Point: 72 °F

Location of Virginia BeachLocation

Past Weather in Virginia Beach — Graph

°F

Virginia Beach Temperature Yesterday

Maximum temperature yesterday: 94 °F (at 3:04 pm)
Minimum temperature yesterday: 72 °F (at 11:20 pm)
Average temperature yesterday: 82 °F

High & Low Weather Summary for the Past Weeks

 TemperatureHumidityPressure
High95 °F (Jul 13, 3:56 pm)100% (Jul 14, 9:35 pm)30.12 "Hg (Jul 14, 9:35 pm)
Low71 °F (Jul 17, 3:56 am)47% (Jul 14, 3:56 pm)29.76 "Hg (Jul 24, 12:56 am)
Average81 °F74%29.99 "Hg
* Reported Jul 9 7:56 pm — Jul 24 7:56 pm, Virginia Beach. Weather by CustomWeather, © 2017

Note: Actual official high and low records may vary slightly from our data, if they occured in-between our weather recording intervals... More about our weather records

Advertising

Virginia Beach Weather History for the Previous 24 Hours

Scroll right to see more
 ConditionsComfort  
Time TempWeatherWind HumidityBarometerVisibility
7:56 pm
Mon, Jul 24
84 °FScattered clouds.9 mph67%29.86 "Hg10 mi
6:56 pm86 °FScattered clouds.9 mph65%29.85 "Hg10 mi
5:56 pm87 °FScattered clouds.12 mph61%29.84 "Hg10 mi
4:56 pm87 °FPartly sunny.10 mph63%29.85 "Hg10 mi
3:56 pm88 °FPartly sunny.10 mph63%29.85 "Hg10 mi
2:56 pm86 °FBroken clouds.9 mph67%29.85 "Hg10 mi
1:56 pm86 °FBroken clouds.6 mph67%29.86 "Hg10 mi
12:56 pm82 °FBroken clouds.12 mph79%29.87 "Hg10 mi
11:56 am79 °FBroken clouds.12 mph77%29.87 "Hg10 mi
10:56 am79 °FBroken clouds.14 mph77%29.87 "Hg10 mi
9:56 am78 °FBroken clouds.10 mph79%29.85 "Hg10 mi
8:56 am76 °FPartly sunny.10 mph82%29.83 "Hg10 mi
7:56 am74 °FPartly sunny.13 mph85%29.83 "Hg10 mi
6:56 am73 °FBroken clouds.10 mph88%29.84 "Hg10 mi
5:56 am73 °FPartly cloudy.10 mph84%29.84 "Hg10 mi
4:56 am73 °FPartly cloudy.9 mph84%29.83 "Hg10 mi
3:56 am72 °FPartly cloudy.7 mph87%29.83 "Hg10 mi
2:56 am73 °FMostly cloudy.12 mph84%29.82 "Hg10 mi
1:56 am72 °FOvercast.9 mph87%29.80 "Hg10 mi
12:56 am73 °FLight rain. Mostly cloudy.8 mph84%29.76 "Hg10 mi
11:56 pm
Sun, Jul 23
73 °FLight rain. Overcast.15 mph88%29.81 "Hg10 mi
11:20 pm72 °FLight rain. Overcast.8 mph87%29.85 "Hg10 mi
10:56 pm73 °FThunderstorms. Mostly cloudy.9 mph84%29.87 "Hg10 mi
9:56 pm74 °FThunderstorms. Mostly cloudy.10 mph85%29.85 "Hg10 mi
9:26 pm75 °FThunderstorms. Mostly cloudy.10 mph85%29.84 "Hg10 mi
Weather by CustomWeather, © 2017

See weather overviewHow to use our weather pages